Showing default

FORMOSAT 3F, 29052

Orbit data source: Space-Track

FORMOSAT 3F, 29052 is a payload satellite owned by NSPO (TW) in LEO that was launched on Sat, 15 Apr 2006 UTC via an MINOTAUR I launch vehicle from the Air Force Western Test Range (AFWTR). Payload-class satellites include a variety of spacecraft equipped with specific instruments for various scientific and technological missions. These include communications satellites like Starlink; space stations such as the ISS; scientific satellites like the Hubble; Earth observation satellites from companies like Planet Labs, Umbra, and HawkEye 360; GPS; miniature CubeSats for education and research; and military/defense satellites.

Loading next visibility...
Identifier
29052, 2006-011F
Orbit
LEO
Country
Flag of TWTW / TWN
Related business
Manufacturer
OSC
Mission
Non-operational Civil Science
Bus & Motor
MICROSTAR, Unknown motor
Mass
62 kg wet, 56 kg dry
Launch date (UTC)
2006-04-15 (20 years ago)
Launch vehicle
MINOTAUR I
Launch site
Air Force Western Test Range (AFWTR)
Object type
Payload
Rocket body
Debris
Shape & HBR
Cyl + 2 Pan, 2.1 m
Radar Cross Section
1.446 m², Medium (>0.1 m² and < 1m²)

Expand to show TLE details & history
Last TLE update: 2 days ago

TLE from 2 days ago
0 FORMOSAT 3F
1 29052U 06011F   26171.31983404  .00000255  00000-0  11022-3 0  9996
2 29052  72.0329  15.8648 0038294 157.1728 203.1123 14.31619261 53231
Epoch: 2026-06-20T07:40Z
TLE epoch observation values (Epoch: 2026-06-20T07:40:33.661Z)
Latitude
-0.00006°
Longitude
-7.81163°
Altitude
814.063 km
Speed
7.433 km/s
True Right ascension
01h 03m 27s
True Declination
0° 00' 00"
Sunlit
Object was in daylight at epoch
Visualization orbit readout
Latitude
Unknown
Longitude
Unknown
Altitude
Unknown
Speed
Unknown
Apparent Right ascension
Unknown
Apparent Declination
Unknown
Sunlit
N/A
Visualization observer readout
Local Sidereal Time
23:08:34
Azimuth
Unknown
Elevation
Unknown
Doppler factor
Unknown
Orbital elements
Apogee altitude
811.559 km
Perigee altitude
756.705 km
Semi-major axis
7,162.269 km
Eccentricity
0.00383
Inclination
72.0329°
RAAN
15.8648°
Arg. of periapsis
157.1728°
True anomaly
202.9408°
Mean anomaly
203.1123°
Eccentric anomaly
203.02648°
Mean motion
3.58069 °/min
Orbital period
100.54 mins
BSTAR
0.00011022
Loading maneuver chart data...
Computing Atmospheric mass density...
Loading historical data...
Loading historical data...
Loading historical data...
Loading historical data...
Loading historical data...
Loading historical data...
Loading historical data...

Documentation

Showing up to 5 results
|